Location: Unspecified
(0.0000°N, 0.0000°E)
Time: 01:47:20
(UTC+00:00)

Envisat - Pass Details

Date: 20 March 2018
Orbit: 764 x 766 km, 98.2° (Epoch: 17 June)

Event Time Altitude Azimuth Distance (km) Brightness Sun altitude
Exits shadow 18:47:35 10° 68° (ENE) 2,263 4.9 -10.0°
Drops below altitude 10° 18:47:59 10° 64° (ENE) 2,293 4.9 -10.1°
Sets 18:52:20 0° 28° (NNE) 3,214 6.0 -11.2°
